Flag for Norway Weather past 2 weeks in Lillestrøm, Norway

Now
59 °F

Fog.


Feels Like: 57 °F
Forecast: 64 / 85 °F
Wind: 10 mph from Northeast

Location: Oslo / Fornebu

Current Time: Jul 23, 2014 at 2:11:06 PM

Latest Report: Jul 23, 2014 at 1:20 PM


Visibility: 1 mi

Pressure: 30.39 "Hg

Humidity: 100%

Dew point: 59 °F

Location of LillestrømLocation

Historic Weather in Lillestrøm — Graph

°F

Lillestrøm temperature yesterday

Maximum temperature yesterday: 66 °F (at 2:20 AM)
Minimum temperature yesterday: 59 °F (at 9:50 AM)
Average temperature yesterday: 62 °F

Past Weeks' High & Low Weather Summary

 TemperatureHumidityPressure
High75 °F (Jul 20, 2:20 PM)100% (Jul 8, 6:20 PM)30.39 "Hg (Jul 8, 6:20 PM)
Low52 °F (Jul 10, 4:50 AM)47% (Jul 21, 12:20 AM)29.65 "Hg (Jul 15, 9:20 AM)
Average59 °F86%30.02 "Hg
* Reported Jul 8 12:20 PM — Jul 23 12:50 PM, Lillestrøm, Weather by CustomWeather, © 2014

Note: Actual official high and low records may vary slightly from our data, if they occured in-between our weather recording intervals... More about our weather records

Advertising

Lillestrøm weather history for previous 24 hours

 ConditionsComfort  
Time TempWeatherWind HumidityBarometerVisibility
12:50 PM
Jul 23
59 °FFog.8 mph100%30.39 "Hg1 mi
11:50 AM57 °FFog.9 mph100%30.39 "Hg1 mi
7:20 AM55 °FFog.8 mph100%30.39 "Hg0 mi
6:50 AM55 °FFog.7 mph100%30.39 "Hg0 mi
6:20 AM55 °FFog.6 mph100%30.39 "Hg0 mi
5:50 AM55 °FFog.8 mph100%30.39 "Hg0 mi
5:20 AM55 °FFog.7 mph100%30.39 "Hg0 mi
4:50 AM55 °FFog.7 mph100%30.39 "Hg0 mi
4:20 AM55 °FFog.7 mph100%30.39 "Hg0 mi
3:50 AM55 °FFog.8 mph100%30.39 "Hg1 mi
3:20 AM55 °FFog.7 mph100%30.39 "Hg0 mi
2:50 AM57 °FSprinkles. Fog.7 mph100%30.39 "Hg1 mi
2:20 AM57 °FFog.5 mph100%30.39 "Hg1 mi
1:50 AM57 °FSprinkles. Fog.3 mph100%30.39 "Hg0 mi
6:50 PM
Jul 22
59 °FFog.9 mph100%30.33 "Hg0 mi
6:20 PM59 °FFog.9 mph100%30.33 "Hg0 mi
5:50 PM59 °FDrizzle. Fog.8 mph100%30.33 "Hg0 mi
5:20 PM59 °FFog.9 mph100%30.33 "Hg0 mi
4:50 PM59 °FFog.9 mph100%30.30 "Hg1 mi
4:20 PM59 °FFog.8 mph100%30.30 "Hg1 mi
3:50 PM61 °FFog.7 mph94%30.30 "Hg0 mi
3:20 PM61 °FFog.6 mph94%30.30 "Hg0 mi
2:50 PM61 °FFog.7 mph94%30.30 "Hg1 mi
2:20 PM61 °FFog.12 mph100%30.30 "Hg1 mi
Weather by CustomWeather, © 2014

See weather overviewHow to use our weather pages